Location: Fours
(44.3167°N, 6.7000°E)
Time: 14:28:42
(UTC+00:00)

X-37B - Pass Details

Date: 10 December 2021
Orbit: 334 x 337 km, 45.0° (Epoch: 11 January)

Event Time Altitude Azimuth Distance (km) Brightness Sun altitude
Rises 18:13:43 0° 268° (W) 2,103 5.7 -24.1°
Reaches altitude 10° 18:15:43 10° 270° (W) 1,266 4.2 -24.4°
Enters shadow 18:16:46 20° 273° (W) 842 3.0 -24.6°
